Date String (YYYY-MM-DD hh:mm:ss) UTC,Instrument flags,Ambient pressure (hPa),Sample flow (lpm),Bypass flow (lpm),Sample temperature (°C),Ambient temperature (°C),ASC tube jacket temperature (°C),LED temperature (°C),Box temperature (°C),Sample RH (%),Span deviation,Mass concentration (μg/m³),Mass concentration (μg/m³),Mass concentration (μg/m³)
DateTimeUTC,F1_M11,P_M11,Q1_M11,Q2_M11,T1_M11,T2_M11,T3_M11,T4_M11,T5_M11,U1_M11,ZSPAN_M11,X0_M11,X2_M11,X1_M11
2022-05-06 19:00:00,,0820.4,5.00,0.00,29.5,28.4,00.0,38.3,31.3,09.7,0000.0,0010.01,0003.76,0001.94
2022-05-06 19:01:00,,0820.4,5.01,0.00,29.5,28.5,00.0,38.3,31.3,09.8,0000.0,0009.66,0003.70,0001.91
2022-05-06 19:02:00,,0820.4,5.01,0.00,29.5,28.5,00.0,38.3,31.4,09.4,0000.0,0009.69,0003.73,0001.91
2022-05-06 19:03:00,,0820.4,5.00,0.00,29.6,28.6,00.0,38.3,31.4,09.6,0000.0,0009.75,0003.80,0001.92
2022-05-06 19:04:00,,0820.4,5.00,0.00,29.6,28.5,00.0,38.4,31.4,09.7,0000.0,0009.15,0003.79,0001.94
2022-05-06 19:05:00,,0820.3,4.99,0.00,29.6,26.7,00.0,38.4,31.0,09.6,0000.0,0009.15,0003.83,0001.95
2022-05-06 19:06:00,,0820.3,5.00,0.00,29.4,25.4,00.0,38.3,30.8,10.1,0000.0,0009.09,0003.88,0001.96
2022-05-06 19:07:00,,0820.4,5.00,0.00,29.4,25.7,00.0,38.3,30.9,10.1,0000.0,0009.10,0003.90,0001.96
2022-05-06 19:08:00,,0820.5,5.01,0.00,29.3,26.1,00.0,38.3,30.9,09.7,0000.0,0009.15,0003.92,0001.95
2022-05-06 19:09:00,,0820.6,4.99,0.00,29.3,26.6,00.0,38.2,30.9,09.3,0000.0,0009.10,0003.88,0001.94
2022-05-06 19:10:00,,0820.6,5.01,0.00,29.3,27.0,00.0,38.2,31.0,09.7,0000.0,0009.07,0003.88,0001.93
2022-05-06 19:11:00,,0820.5,4.99,0.00,29.3,27.3,00.0,38.2,31.0,09.7,0000.0,0009.53,0003.91,0001.95
2022-05-06 19:12:00,,0820.4,4.99,0.00,29.3,27.6,00.0,38.2,31.1,09.8,0000.0,0009.57,0003.92,0001.98
2022-05-06 19:13:00,,0820.5,5.01,0.00,29.4,27.8,00.0,38.2,31.1,09.6,0000.0,0009.47,0003.89,0001.97
2022-05-06 19:14:00,,0820.5,5.00,0.00,29.4,28.0,00.0,38.2,31.2,09.9,0000.0,0009.08,0003.79,0001.96
2022-05-06 19:15:00,,0820.5,5.00,0.00,29.4,28.2,00.0,38.2,31.3,09.3,0000.0,0008.85,0003.75,0001.94
2022-05-06 19:16:00,,0820.5,5.00,0.00,29.5,28.3,00.0,38.2,31.3,09.7,0000.0,0008.67,0003.66,0001.93
2022-05-06 19:17:00,,0820.5,5.00,0.00,29.5,28.4,00.0,38.3,31.4,10.3,0000.0,0008.63,0003.62,0001.91
2022-05-06 19:18:00,,0820.5,5.00,0.00,29.6,28.6,00.0,38.3,31.4,09.8,0000.0,0009.22,0003.59,0001.92
2022-05-06 19:19:00,,0820.5,5.00,0.00,29.6,28.6,00.0,38.3,31.5,09.4,0000.0,0009.45,0003.58,0001.93
2022-05-06 19:20:00,,0820.6,5.00,0.00,29.6,28.7,00.0,38.3,31.5,10.1,0000.0,0009.48,0003.59,0001.94
2022-05-06 19:21:00,,0820.6,5.00,0.00,29.7,28.0,00.0,38.4,31.4,10.5,0000.0,0009.50,0003.58,0001.95
2022-05-06 19:22:00,,0820.6,5.01,0.00,29.5,25.9,00.0,38.4,30.9,10.8,0000.0,0009.06,0003.53,0001.95
2022-05-06 19:23:00,,0820.6,5.00,0.00,29.4,25.6,00.0,38.4,30.8,10.6,0000.0,0009.14,0003.54,0001.93
2022-05-06 19:24:00,,0820.5,4.99,0.00,29.4,26.0,00.0,38.3,30.9,10.2,0000.0,0009.22,0003.58,0001.94
2022-05-06 19:25:00,,0820.5,5.00,0.00,29.3,26.4,00.0,38.3,31.0,10.1,0000.0,0009.34,0003.62,0001.95
2022-05-06 19:26:00,,0820.6,5.00,0.00,29.3,26.9,00.0,38.3,31.0,09.9,0000.0,0009.64,0003.64,0001.97
2022-05-06 19:27:00,,0820.4,5.00,0.00,29.3,27.3,00.0,38.2,31.1,10.3,0000.0,0009.68,0003.68,0001.98
2022-05-06 19:28:00,,0820.4,5.01,0.00,29.4,27.6,00.0,38.2,31.1,10.3,0000.0,0009.63,0003.71,0002.00
2022-05-06 19:29:00,,0820.4,4.99,0.00,29.4,27.9,00.0,38.2,31.2,09.8,0000.0,0009.56,0003.74,0002.01
2022-05-06 19:30:00,,0820.4,5.00,0.00,29.4,28.1,00.0,38.2,31.2,09.8,0000.0,0009.09,0003.76,0002.02
2022-05-06 19:31:00,,0820.4,5.00,0.00,29.5,28.2,00.0,38.3,31.3,09.9,0000.0,0009.40,0003.74,0002.02
2022-05-06 19:32:00,,0820.4,5.00,0.00,29.5,28.4,00.0,38.3,31.4,09.9,0000.0,0009.90,0003.75,0002.02
2022-05-06 19:33:00,,0820.3,5.00,0.00,29.6,28.5,00.0,38.3,31.4,09.6,0000.0,0009.86,0003.77,0002.02
2022-05-06 19:34:00,,0820.5,5.00,0.00,29.6,28.7,00.0,38.3,31.5,09.7,0000.0,0009.84,0003.82,0002.02
2022-05-06 19:35:00,,0820.4,5.01,0.00,29.6,28.5,00.0,38.4,31.5,09.9,0000.0,0009.69,0003.76,0002.01
2022-05-06 19:36:00,,0820.4,4.99,0.00,29.6,26.5,00.0,38.4,31.0,10.7,0000.0,0009.83,0003.79,0002.02
2022-05-06 19:37:00,,0820.3,5.01,0.00,29.4,25.3,00.0,38.3,30.7,09.8,0000.0,0009.67,0003.77,0002.02
2022-05-06 19:38:00,,0820.4,4.99,0.00,29.3,25.7,00.0,38.3,30.8,10.6,0000.0,0010.21,0003.75,0002.03
2022-05-06 19:39:00,,0820.3,5.01,0.00,29.3,26.1,00.0,38.3,30.9,10.4,0000.0,0010.31,0003.74,0002.01
2022-05-06 19:40:00,,0820.3,4.99,0.00,29.3,26.6,00.0,38.2,30.9,10.4,0000.0,0010.27,0003.72,0002.00
2022-05-06 19:41:00,,0820.3,5.01,0.00,29.3,27.0,00.0,38.2,31.0,10.2,0000.0,0010.98,0003.74,0002.00
2022-05-06 19:42:00,,0820.3,5.00,0.00,29.3,27.4,00.0,38.2,31.1,10.0,0000.0,0011.36,0003.81,0002.02
2022-05-06 19:43:00,,0820.4,5.00,0.00,29.3,27.7,00.0,38.2,31.1,09.7,0000.0,0011.05,0003.92,0002.04
2022-05-06 19:44:00,,0820.3,4.99,0.00,29.4,28.0,00.0,38.2,31.2,10.4,0000.0,0011.54,0003.96,0002.05
2022-05-06 19:45:00,,0820.3,5.01,0.00,29.4,28.2,00.0,38.2,31.3,10.5,0000.0,0011.77,0004.00,0002.06
2022-05-06 19:46:00,,0820.3,5.00,0.00,29.5,28.3,00.0,38.2,31.3,10.0,0000.0,0011.85,0004.01,0002.06
2022-05-06 19:47:00,,0820.3,4.99,0.00,29.5,28.4,00.0,38.3,31.4,10.4,0000.0,0011.76,0003.97,0002.05
2022-05-06 19:48:00,,0820.2,5.01,0.00,29.6,28.6,00.0,38.3,31.4,11.0,0000.0,0011.75,0003.97,0002.03
2022-05-06 19:49:00,,0820.2,5.00,0.00,29.6,28.6,00.0,38.3,31.4,10.7,0000.0,0011.12,0003.97,0002.04
2022-05-06 19:50:00,,0820.2,4.99,0.00,29.6,27.4,00.0,38.3,31.2,09.8,0000.0,0011.06,0003.97,0002.03
2022-05-06 19:51:00,,0820.3,5.01,0.00,29.4,25.5,00.0,38.3,30.8,09.8,0000.0,0011.09,0003.96,0002.03
2022-05-06 19:52:00,,0820.2,5.00,0.00,29.3,25.5,00.0,38.3,30.8,10.2,0000.0,0010.49,0003.96,0002.05
2022-05-06 19:53:00,,0820.3,4.99,0.00,29.3,26.0,00.0,38.3,30.9,09.5,0000.0,0010.31,0003.91,0002.03
2022-05-06 19:54:00,,0820.3,5.01,0.00,29.3,26.4,00.0,38.2,30.9,10.0,0000.0,0010.02,0003.79,0001.99
2022-05-06 19:55:00,,0820.2,4.99,0.00,29.3,26.9,00.0,38.2,30.9,10.8,0000.0,0009.68,0003.72,0001.97
2022-05-06 19:56:00,,0820.3,5.00,0.00,29.3,27.3,00.0,38.2,31.0,11.0,0000.0,0009.23,0003.68,0001.98
2022-05-06 19:57:00,,0820.2,5.00,0.00,29.3,27.6,00.0,38.2,31.1,11.0,0000.0,0009.12,0003.67,0001.99
2022-05-06 19:58:00,,0820.1,5.00,0.00,29.3,27.9,00.0,38.2,31.2,10.2,0000.0,0009.11,0003.68,0001.98
2022-05-06 19:59:00,,0820.1,4.99,0.00,29.4,28.1,00.0,38.2,31.2,09.6,0000.0,0009.22,0003.71,0002.00
